TimeBST,TemperatureF,Dew PointF,Humidity,Sea Level PressureIn,VisibilityMPH,Wind Direction,Wind SpeedMPH,Gust SpeedMPH,PrecipitationIn,Events,Conditions,WindDirDegrees,DateUTC
7:50 AM,57.2,53.6,88,30.06,-9999.0,West,4.6,-,N/A,,Clear,280,2013-08-27 06:50:00
8:20 AM,57.2,53.6,88,30.06,-9999.0,West,8.1,-,N/A,,Clear,280,2013-08-27 07:20:00
8:50 AM,57.2,53.6,88,30.06,-9999.0,West,13.8,-,N/A,,Clear,260,2013-08-27 07:50:00
9:20 AM,59.0,53.6,82,30.06,6.2,West,10.4,-,N/A,Rain,Light Rain,260,2013-08-27 08:20:00
9:50 AM,59.0,53.6,82,30.06,6.2,West,10.4,-,N/A,,Partly Cloudy,260,2013-08-27 08:50:00
10:20 AM,60.8,55.4,82,30.06,6.2,WSW,9.2,-,N/A,,Partly Cloudy,250,2013-08-27 09:20:00
10:50 AM,60.8,57.2,88,30.06,6.2,WSW,10.4,-,N/A,Rain,Light Rain,250,2013-08-27 09:50:00
11:20 AM,62.6,55.4,77,30.06,6.2,WSW,9.2,-,N/A,,Partly Cloudy,250,2013-08-27 10:20:00
11:50 AM,64.4,57.2,77,30.06,6.2,WSW,8.1,-,N/A,,Partly Cloudy,240,2013-08-27 10:50:00
12:20 PM,66.2,60.8,83,30.06,6.2,SW,8.1,-,N/A,,Partly Cloudy,230,2013-08-27 11:20:00
12:50 PM,66.2,60.8,83,30.06,6.2,SW,9.2,-,N/A,,Partly Cloudy,220,2013-08-27 11:50:00
1:20 PM,69.8,59.0,68,30.06,6.2,WSW,10.4,-,N/A,,Partly Cloudy,250,2013-08-27 12:20:00
1:50 PM,69.8,60.8,73,30.06,6.2,SW,9.2,-,N/A,,Partly Cloudy,220,2013-08-27 12:50:00
2:20 PM,69.8,60.8,73,30.06,6.2,SW,9.2,-,N/A,,Partly Cloudy,220,2013-08-27 13:20:00
3:20 PM,69.8,59.0,68,30.06,6.2,SW,10.4,-,N/A,,Scattered Clouds,230,2013-08-27 14:20:00
3:50 PM,69.8,60.8,73,30.06,6.2,WSW,6.9,-,N/A,,Scattered Clouds,240,2013-08-27 14:50:00
4:20 PM,69.8,60.8,73,30.06,6.2,West,10.4,-,N/A,,Scattered Clouds,260,2013-08-27 15:20:00
4:50 PM,69.8,62.6,78,30.06,6.2,WSW,6.9,-,N/A,,Scattered Clouds,240,2013-08-27 15:50:00
5:20 PM,73.4,64.4,73,30.06,6.2,SW,10.4,-,N/A,,Partly Cloudy,230,2013-08-27 16:20:00
5:50 PM,69.8,60.8,73,30.06,6.2,SW,12.7,-,N/A,,Partly Cloudy,230,2013-08-27 16:50:00
6:20 PM,68.0,60.8,78,30.06,6.2,SW,8.1,-,N/A,,Partly Cloudy,230,2013-08-27 17:20:00
6:50 PM,66.2,60.8,83,30.06,6.2,SW,5.8,-,N/A,,Partly Cloudy,230,2013-08-27 17:50:00
7:20 PM,66.2,59.0,78,30.09,6.2,East,3.5,-,N/A,,Partly Cloudy,80,2013-08-27 18:20:00
7:50 PM,64.4,55.4,73,30.12,6.2,ENE,16.1,-,N/A,,Scattered Clouds,60,2013-08-27 18:50:00
8:20 PM,62.6,53.6,72,30.12,6.2,ENE,13.8,-,N/A,,Scattered Clouds,70,2013-08-27 19:20:00
8:50 PM,60.8,55.4,82,30.15,6.2,East,11.5,-,N/A,,Mostly Cloudy,80,2013-08-27 19:50:00
9:20 PM,60.8,55.4,82,30.15,6.2,East,11.5,-,N/A,,Mostly Cloudy,80,2013-08-27 20:20:00
9:50 PM,59.0,53.6,82,30.18,6.2,ENE,10.4,-,N/A,,Mostly Cloudy,70,2013-08-27 20:50:00